Vorticity
9 21 -24 15 6 31 32 9 30 -31 -20 29 -13 -6 0 9 -16 -4 6 7 7 10 11 9 10 12 11 17 11 13 5 9 9 12 19 8 6 6 9 6 3 5 7 7
13 19 42 38 3 -1 25 11 1 10 6 -25 -18 25 15 5 8 7 5 4 7 7 10 11 12 15 11 10 17 14 8 10 4 12 20 11 8 10 6 6 2 7 6 6
10 13 8 38 34 -11 5 10 27 23 34 5 9 -3 4 4 -0 1 2 6 9 13 15 9 13 13 16 15 13 13 9 3 16 26 19 16 5 8 3 6 3 7 8 2
15 15 15 33 24 21 9 2 -10 4 -4 -2 4 -3 1 -1 -4 3 9 11 13 11 16 15 15 18 14 13 15 12 4 20 26 22 19 12 4 9 -0 6 3 4 6 6
3 14 26 20 14 32 35 34 -11 1 -1 1 7 12 5 13 19 14 13 16 20 7 8 18 19 16 16 14 16 14 17 19 20 24 10 6 6 12 1 8 3 4 6 6
14 11 2 2 17 3 25 48 48 17 7 5 -8 -5 -4 29 40 46 28 26 24 18 12 12 13 15 10 11 14 22 -4 8 19 36 4 -0 10 5 -0 10 4 5 5 4
7 11 13 8 29 9 13 13 17 27 64 55 50 27 17 17 12 16 12 16 22 26 21 18 16 15 14 10 18 17 3 60 11 34 -7 18 3 8 6 2 11 5 3 4
4 1 37 11 23 -2 14 16 15 25 1 38 17 -6 10 12 21 13 13 19 15 20 20 22 17 12 19 12 19 14 4 25 2 33 13 -1 6 10 1 2 22 6 4 2
2 4 4 17 10 -2 6 22 27 -15 5 15 4 -4 3 6 8 12 7 26 18 12 18 17 5 5 23 15 19 14 13 -1 -6 67 31 24 17 8 6 -16 54 3 3 1
11 16 11 8 7 -5 -3 35 11 11 8 10 6 3 10 14 11 9 14 18 13 18 17 11 1 15 18 15 16 7 32 18 63 -40 14 -12 2 4 12 -4 -5 30 2 1
26 18 14 4 2 11 21 10 5 1 5 7 11 10 2 19 21 15 11 20 14 16 12 3 9 32 30 22 15 20 30 2 2 40 -10 -9 -1 -0 -2 4 9 13 3 15
-0 -4 10 6 3 -5 4 1 5 8 9 2 7 1 1 -0 25 22 18 7 19 18 29 14 32 14 12 33 25 22 9 61 12 39 39 33 -18 4 6 -8 9 11 14 6
12 8 -1 7 5 3 11 -6 3 8 -14 2 3 -5 2 10 22 18 17 21 18 7 23 11 -4 5 12 8 29 26 -16 6 -19 38 -11 18 22 15 10 25 7 4 16 -1
9 -2 11 2 15 7 7 3 2 3 3 5 7 4 15 21 8 21 11 13 13 11 19 9 10 12 15 8 16 42 28 19 21 19 26 19 7 12 26 13 28 47 4 4
9 9 5 4 7 7 6 7 10 12 12 15 16 21 17 17 9 11 20 10 7 9 14 8 8 15 16 16 3 5 57 11 19 9 32 28 31 32 5 34 -3 -3 14 8
9 7 9 12 14 12 11 10 11 16 16 19 15 17 19 23 7 13 13 19 13 13 14 14 10 8 10 16 12 15 -5 16 27 29 1 23 -2 30 13 20 -8 22 29 29
11 11 10 11 10 9 11 12 11 9 8 13 12 9 10 25 10 10 11 13 13 18 12 17 14 13 20 14 12 8 19 -2 2 9 7 28 9 1 31 14 22 2 -16 8
10 10 11 9 8 7 8 8 9 9 10 8 7 12 7 14 9 11 10 8 10 22 16 14 13 8 13 16 14 14 12 17 10 6 2 3 3 14 -8 -10 -13 8 8 9
11 11 9 7 6 6 7 8 8 9 9 9 10 11 8 8 6 9 10 9 6 6 18 17 15 13 12 13 13 13 14 10 11 13 15 14 15 16 14 10 7 6 7 7
7 5 4 7 8 10 11 10 10 10 9 9 9 12 13 10 9 7 8 8 9 7 5 6 7 20 14 7 9 23 9 10 13 12 15 17 14 13 15 17 18 19 16 13
5 7 6 7 8 6 11 18 12 6 9 11 10 11 12 14 13 9 7 7 7 7 9 8 5 4 3 7 16 10 18 21 14 9 12 14 16 11 5 5 6 6 11 15
6 6 7 5 6 9 8 3 4 7 8 10 11 11 9 13 14 17 15 10 9 9 9 8 7 7 7 5 4 4 9 9 9 11 15 15 16 17 16 14 12 11 13 14
6 7 10 10 13 11 10 10 10 10 9 8 6 11 9 6 10 11 13 17 18 11 8 10 13 12 8 7 7 6 4 3 3 4 8 8 7 8 6 3 6 8 9 10
17 16 9 7 13 11 10 10 17 22 22 26 26 16 8 10 5 9 10 12 13 15 17 15 13 11 14 16 14 7 6 7 6 6 5 4 4 4 5 8 12 9 4 3
11 7 1 10 7 17 25 23 16 15 5 12 31 34 35 12 7 5 5 12 8 12 11 12 16 13 12 14 15 15 18 23 23 17 9 7 8 7 6 7 9 9 9 9
9 12 6 7 16 22 17 13 9 12 5 24 38 54 46 36 15 6 2 5 7 4 8 8 10 12 14 13 9 9 13 13 15 13 13 18 19 15 10 9 10 10 10 10
9 7 10 11 18 15 13 15 8 4 4 12 25 33 48 36 25 9 6 2 2 1 2 4 5 10 11 12 14 15 10 -1 3 7 17 20 19 18 17 18 15 11 10 11
Height
5522 5525 5524 5525 5527 5529 5532 5538 5543 5550 5552 5554 5555 5555 5555 5558 5562 5564 5565 5567 5569 5570 5572 5576 5580 5583 5586 5592 5596 5601 5605 5608 5611 5615 5618 5623 5630 5634 5639 5642 5644 5646 5646 5646
5516 5517 5517 5517 5520 5522 5527 5532 5534 5536 5541 5548 5550 5546 5546 5550 5552 5555 5556 5556 5558 5560 5562 5564 5570 5572 5574 5581 5586 5590 5594 5596 5600 5604 5608 5615 5622 5627 5632 5634 5637 5640 5641 5641
5512 5512 5511 5511 5517 5519 5520 5524 5526 5529 5535 5538 5534 5537 5540 5542 5544 5546 5546 5548 5549 5549 5551 5554 5559 5563 5564 5568 5574 5578 5582 5585 5588 5592 5597 5605 5612 5618 5623 5627 5630 5633 5635 5636
5509 5507 5507 5508 5508 5508 5508 5511 5518 5522 5528 5529 5525 5524 5535 5536 5534 5536 5536 5536 5537 5538 5539 5542 5549 5552 5555 5558 5562 5566 5571 5574 5577 5582 5588 5596 5603 5609 5615 5619 5622 5626 5630 5630
5506 5506 5507 5505 5505 5504 5505 5510 5511 5513 5517 5517 5517 5526 5528 5523 5526 5525 5524 5523 5525 5526 5528 5532 5537 5541 5543 5547 5551 5555 5560 5564 5567 5572 5580 5587 5593 5601 5606 5611 5615 5619 5623 5625
5506 5505 5505 5505 5503 5502 5503 5506 5507 5511 5514 5515 5514 5516 5515 5517 5515 5514 5512 5512 5512 5514 5517 5520 5524 5528 5532 5537 5540 5545 5550 5554 5558 5564 5571 5578 5587 5591 5598 5602 5607 5611 5615 5618
5505 5505 5504 5503 5502 5502 5503 5506 5502 5504 5506 5509 5508 5509 5509 5507 5507 5507 5505 5504 5503 5503 5505 5509 5512 5516 5521 5525 5530 5534 5540 5539 5548 5554 5562 5571 5576 5582 5589 5594 5599 5603 5607 5611
5504 5504 5502 5501 5502 5500 5502 5500 5500 5502 5503 5503 5502 5502 5504 5503 5501 5501 5500 5498 5497 5497 5500 5502 5505 5508 5510 5514 5520 5524 5531 5533 5538 5545 5554 5561 5567 5573 5580 5585 5589 5595 5599 5603
5505 5505 5503 5503 5501 5499 5499 5499 5500 5501 5501 5500 5500 5501 5501 5500 5498 5496 5495 5493 5492 5493 5494 5497 5499 5501 5502 5505 5510 5514 5519 5521 5529 5533 5544 5551 5558 5564 5570 5575 5578 5584 5589 5593
5505 5503 5503 5501 5500 5498 5497 5500 5501 5501 5500 5500 5500 5500 5498 5496 5494 5492 5490 5488 5488 5488 5490 5491 5493 5494 5495 5497 5501 5508 5511 5515 5515 5526 5535 5542 5550 5555 5561 5565 5569 5574 5579 5584
5506 5505 5504 5503 5502 5500 5500 5501 5502 5500 5500 5498 5497 5497 5496 5492 5489 5488 5486 5484 5483 5483 5484 5485 5487 5487 5488 5489 5493 5499 5504 5507 5510 5512 5523 5531 5539 5546 5551 5557 5562 5565 5569 5573
5507 5506 5505 5504 5504 5503 5502 5502 5502 5501 5500 5499 5497 5495 5492 5489 5485 5483 5482 5480 5478 5478 5478 5480 5481 5482 5483 5483 5485 5490 5496 5495 5503 5508 5514 5518 5529 5536 5541 5547 5552 5556 5561 5566
5507 5506 5506 5505 5504 5504 5503 5503 5501 5500 5497 5496 5494 5492 5489 5486 5482 5479 5478 5476 5475 5474 5474 5475 5477 5477 5479 5479 5481 5485 5487 5487 5499 5501 5509 5515 5521 5525 5531 5537 5542 5548 5553 5558
5507 5506 5505 5505 5504 5503 5502 5500 5498 5496 5494 5491 5489 5486 5484 5481 5478 5476 5474 5473 5472 5471 5472 5471 5473 5474 5476 5476 5476 5479 5483 5484 5491 5497 5501 5507 5513 5518 5523 5530 5534 5537 5541 5546
5505 5505 5504 5503 5501 5500 5498 5496 5494 5492 5489 5486 5483 5481 5479 5477 5475 5473 5471 5470 5469 5468 5469 5469 5471 5471 5472 5474 5476 5475 5478 5479 5484 5488 5495 5501 5505 5511 5518 5522 5527 5530 5533 5535
5504 5503 5502 5501 5499 5497 5495 5493 5491 5488 5485 5482 5479 5477 5474 5473 5472 5471 5469 5467 5466 5466 5466 5467 5468 5469 5470 5471 5473 5475 5475 5476 5479 5484 5487 5493 5499 5504 5508 5513 5517 5520 5523 5527
5502 5501 5499 5497 5495 5494 5492 5490 5487 5485 5482 5479 5477 5474 5472 5470 5469 5468 5466 5465 5464 5463 5464 5465 5465 5466 5468 5469 5470 5472 5474 5475 5476 5480 5483 5487 5493 5495 5500 5506 5507 5511 5513 5516
5498 5497 5496 5494 5492 5490 5488 5486 5484 5481 5479 5476 5474 5472 5470 5467 5466 5465 5463 5462 5461 5461 5461 5462 5463 5463 5464 5465 5467 5468 5470 5472 5475 5477 5479 5481 5484 5488 5492 5495 5497 5500 5504 5507
5495 5493 5492 5490 5488 5486 5484 5481 5479 5477 5474 5472 5470 5468 5466 5465 5464 5463 5462 5461 5461 5460 5460 5459 5459 5460 5461 5463 5464 5465 5466 5468 5470 5472 5475 5477 5480 5482 5485 5488 5490 5491 5494 5497
5490 5489 5487 5485 5483 5480 5477 5475 5472 5470 5468 5466 5465 5463 5462 5460 5459 5459 5458 5458 5458 5457 5457 5458 5458 5458 5458 5458 5459 5461 5463 5464 5466 5467 5469 5470 5473 5475 5477 5479 5481 5484 5486 5488
5486 5484 5482 5480 5477 5475 5472 5469 5466 5464 5462 5460 5458 5457 5456 5454 5454 5452 5452 5452 5452 5452 5453 5454 5455 5455 5456 5456 5456 5457 5458 5459 5460 5461 5463 5466 5467 5469 5470 5472 5473 5475 5476 5477
5481 5478 5476 5473 5471 5468 5466 5463 5460 5458 5455 5453 5451 5450 5449 5448 5447 5446 5446 5445 5446 5446 5447 5448 5449 5450 5451 5452 5453 5453 5454 5454 5455 5456 5456 5457 5458 5459 5461 5462 5464 5465 5466 5467
5474 5471 5468 5466 5463 5460 5457 5455 5451 5449 5446 5444 5442 5441 5440 5440 5440 5439 5439 5439 5439 5439 5439 5440 5441 5442 5443 5444 5446 5447 5448 5449 5449 5449 5449 5450 5451 5452 5453 5454 5454 5455 5456 5457
5465 5463 5460 5457 5454 5451 5447 5444 5440 5437 5434 5432 5430 5428 5428 5430 5431 5431 5431 5432 5432 5433 5433 5433 5433 5434 5435 5436 5436 5437 5438 5439 5441 5442 5443 5443 5444 5444 5445 5445 5446 5447 5447 5447
5458 5455 5452 5448 5444 5440 5436 5433 5430 5427 5424 5420 5414 5411 5412 5415 5419 5422 5423 5424 5425 5426 5427 5427 5427 5428 5428 5428 5429 5429 5430 5431 5432 5432 5433 5434 5434 5435 5436 5436 5437 5437 5437 5437
5448 5445 5442 5438 5435 5431 5428 5426 5423 5420 5415 5408 5400 5394 5394 5399 5406 5411 5414 5417 5418 5419 5420 5420 5420 5420 5421 5421 5421 5421 5421 5421 5421 5421 5421 5421 5422 5422 5423 5423 5423 5423 5424 5423
5438 5435 5432 5429 5426 5423 5421 5418 5416 5412 5408 5402 5395 5389 5388 5391 5396 5402 5406 5408 5410 5411 5412 5412 5413 5413 5413 5412 5412 5412 5412 5412 5412 5412 5411 5410 5410 5409 5409 5409 5409 5409 5409 5409